Wind_Speed
47 51 56 59 64 64 66 67 68 69 69 70 69 71 73 70 67 65 63 62 62 63 63 61 57 51 52 52 49 48 47 45 44
52 56 59 62 64 66 67 62 67 69 70 70 70 67 62 61 58 58 59 60 59 62 62 57 51 51 52 55 52 48 46 43 47
56 58 65 66 64 66 64 64 73 69 65 64 61 59 57 55 54 53 55 58 58 59 56 54 52 52 53 56 51 52 50 51 49
60 63 68 66 65 65 66 70 69 63 61 59 55 54 53 51 52 53 55 56 57 56 54 52 53 52 56 55 53 50 56 60 59
65 68 72 70 68 70 70 72 68 63 58 53 52 48 49 50 51 53 55 56 54 54 54 53 53 54 55 54 53 56 63 59 64
71 73 74 74 70 70 71 70 65 57 52 50 48 49 51 51 51 51 53 54 52 52 53 52 53 54 55 55 57 55 57 59 60
72 71 70 69 71 75 70 65 56 49 48 47 48 49 51 50 50 49 51 51 51 52 54 56 56 55 56 59 62 59 59 62 65
69 71 70 72 74 74 66 56 49 46 48 48 50 50 49 49 49 48 49 51 51 52 54 60 62 59 58 60 62 62 64 65 66
71 70 69 74 73 66 57 50 45 47 48 49 47 45 46 47 47 47 48 51 53 54 57 62 65 65 63 62 61 63 64 66 67
70 70 71 68 66 58 50 45 44 45 48 46 44 43 44 45 45 45 46 49 53 56 60 62 66 70 69 68 67 68 67 69 73
69 70 66 66 59 49 46 43 43 44 43 43 42 43 44 45 45 47 47 47 49 52 58 63 67 70 75 77 77 77 77 75 76
70 65 61 56 47 42 42 44 45 46 48 47 44 44 45 47 47 48 48 50 51 52 55 57 62 70 75 80 84 88 88 88 90
67 56 54 45 45 44 44 45 48 50 51 52 52 52 54 54 55 55 55 55 55 56 59 60 62 64 66 69 74 80 86 92 94
55 54 46 45 45 46 46 48 50 50 51 52 53 53 54 55 56 57 59 61 62 63 65 65 67 68 70 73 75 77 79 82 85
51 47 45 45 47 45 44 45 46 47 49 51 52 53 55 56 58 60 62 64 66 69 71 72 74 76 78 80 82 83 85 87 89
46 44 42 40 41 42 43 43 43 46 49 52 54 55 58 61 64 66 68 69 71 73 75 77 79 82 84 86 88 90 92 94 96
41 42 41 43 43 43 45 47 47 49 51 53 55 58 61 62 66 70 73 75 77 79 81 83 85 87 90 92 93 96 98 99 102
42 42 42 44 46 46 48 51 53 55 56 58 60 62 67 71 79 81 81 82 84 85 86 88 90 92 94 96 98 101 101 103 105
42 45 46 47 48 50 53 57 60 62 65 67 69 71 74 76 77 86 89 88 87 89 91 94 96 98 99 100 101 103 104 106 107
44 47 50 50 52 55 58 61 64 68 71 74 77 80 83 86 85 82 85 87 89 89 91 94 97 99 102 104 106 108 110 111 114
Wind_Direction
288 287 291 292 294 295 298 298 291 289 287 286 286 285 282 280 277 275 272 271 271 273 274 274 272 265 266 267 270 272 276 273 275
286 290 295 297 297 299 299 297 300 295 291 289 288 286 281 279 275 274 272 271 272 274 273 269 262 259 265 264 269 268 273 275 275
287 293 298 301 298 297 302 298 304 297 292 291 288 284 280 277 274 274 273 273 274 274 271 265 256 255 261 261 267 272 279 275 278
292 299 301 301 297 300 303 304 303 298 292 290 285 282 281 280 279 277 276 275 274 271 265 257 255 257 259 260 265 272 278 274 278
294 297 300 301 300 303 304 304 300 296 291 287 283 281 282 282 281 281 279 277 275 270 263 256 255 259 259 263 264 273 277 274 277
293 298 299 301 302 305 302 304 298 293 287 284 285 287 287 285 284 282 280 278 272 269 259 255 258 262 263 264 262 271 274 276 270
294 298 300 300 302 305 302 302 296 292 286 287 288 290 289 288 287 285 284 279 275 268 259 254 256 260 261 262 263 266 275 275 276
295 296 299 301 303 302 300 298 292 290 289 290 292 291 291 289 289 287 285 281 275 268 259 255 256 259 262 264 263 265 271 274 271
293 296 300 302 298 298 298 294 293 293 294 293 292 292 293 291 291 290 287 284 278 270 264 259 257 258 259 261 263 267 271 272 271
293 298 298 296 296 298 295 293 297 296 295 295 295 293 292 291 290 290 289 285 281 276 269 265 259 258 258 260 261 263 266 267 269
296 296 293 295 295 297 296 296 298 299 301 301 300 297 294 293 291 291 289 288 285 281 276 272 268 263 260 259 260 260 261 263 265
294 292 291 293 298 299 299 301 302 303 301 300 298 298 298 297 296 293 290 286 284 283 280 277 275 271 269 266 265 263 262 262 263
289 289 295 297 301 302 300 302 303 302 300 300 299 298 295 294 293 292 291 289 287 283 279 278 276 275 274 273 271 270 269 267 267
283 290 297 298 299 299 296 295 297 296 297 296 295 296 295 295 294 293 291 289 287 285 283 280 278 276 273 272 271 271 270 269 269
283 292 296 297 297 295 296 297 298 298 298 298 297 297 297 296 294 293 291 289 287 285 283 282 280 278 276 275 274 273 272 270 269
285 290 290 295 295 293 296 297 298 297 298 298 298 299 299 299 297 294 291 288 286 284 282 280 279 277 276 274 273 273 272 272 272
284 286 287 288 289 293 294 294 294 294 295 297 298 301 300 298 297 294 290 288 285 283 282 280 278 278 277 276 275 274 273 273 272
282 283 283 286 289 291 292 294 294 293 294 295 296 298 302 302 303 300 296 293 289 287 285 283 281 279 277 275 274 273 273 272 271
282 284 287 288 288 290 293 292 294 295 294 295 295 295 297 298 299 300 298 295 292 289 287 286 285 284 282 281 279 278 277 276 275
281 284 286 288 290 292 293 294 295 295 296 296 297 297 297 296 294 292 292 292 289 288 287 286 284 283 281 280 280 279 278 277 277
Height
10847 10846 10843 10840 10836 10831 10827 10822 10818 10813 10808 10804 10800 10797 10794 10791 10788 10785 10785 10784 10783 10782 10782 10782 10781 10783 10783 10783 10785 10786 10786 10786 10786
10839 10836 10834 10830 10825 10819 10814 10809 10805 10799 10794 10789 10785 10782 10778 10776 10776 10774 10773 10773 10772 10770 10769 10771 10772 10773 10773 10773 10775 10775 10777 10777 10776
10831 10828 10823 10818 10814 10809 10803 10797 10791 10784 10779 10775 10771 10768 10766 10765 10764 10763 10762 10761 10760 10759 10757 10758 10761 10763 10763 10764 10765 10765 10765 10766 10766
10819 10816 10813 10808 10803 10798 10792 10786 10779 10772 10767 10762 10759 10757 10755 10755 10754 10754 10752 10750 10748 10746 10747 10747 10749 10751 10753 10755 10755 10755 10755 10756 10756
10809 10805 10802 10798 10793 10788 10781 10774 10767 10761 10756 10752 10749 10747 10746 10745 10744 10743 10741 10739 10736 10735 10735 10737 10739 10742 10743 10744 10745 10745 10745 10745 10745
10798 10795 10791 10786 10782 10776 10770 10763 10756 10750 10746 10743 10740 10739 10737 10735 10733 10731 10729 10727 10724 10724 10725 10728 10730 10732 10733 10733 10734 10733 10734 10734 10734
10788 10784 10780 10775 10771 10765 10758 10752 10746 10741 10738 10735 10732 10729 10727 10724 10722 10720 10718 10717 10715 10715 10715 10717 10719 10720 10721 10721 10721 10721 10722 10722 10722
10778 10774 10770 10764 10759 10753 10747 10741 10737 10733 10730 10727 10723 10720 10717 10714 10712 10710 10708 10707 10706 10705 10705 10705 10707 10709 10709 10709 10708 10708 10708 10708 10708
10767 10764 10760 10755 10749 10743 10738 10733 10729 10726 10721 10717 10715 10712 10708 10705 10702 10700 10698 10696 10695 10694 10694 10693 10694 10696 10696 10696 10695 10694 10695 10695 10695
10756 10753 10749 10744 10739 10733 10728 10725 10721 10717 10713 10708 10706 10703 10700 10696 10693 10691 10689 10686 10683 10683 10681 10680 10681 10681 10683 10682 10680 10680 10681 10680 10679
10745 10743 10738 10733 10728 10724 10720 10716 10713 10709 10705 10702 10699 10695 10692 10688 10685 10682 10679 10676 10673 10671 10669 10668 10666 10666 10666 10667 10665 10663 10662 10662 10661
10736 10733 10728 10722 10718 10715 10712 10708 10704 10700 10697 10694 10692 10687 10683 10680 10677 10674 10670 10666 10663 10659 10656 10655 10652 10651 10649 10648 10646 10646 10644 10644 10641
10726 10722 10717 10712 10709 10706 10703 10699 10695 10691 10687 10684 10682 10678 10673 10669 10666 10663 10659 10654 10651 10647 10643 10641 10639 10635 10632 10629 10626 10625 10624 10622 10621
10716 10713 10708 10704 10701 10698 10695 10692 10687 10683 10678 10674 10671 10667 10661 10657 10653 10650 10646 10641 10636 10632 10628 10625 10622 10618 10615 10611 10608 10606 10603 10600 10598
10706 10703 10699 10695 10692 10689 10687 10683 10677 10672 10667 10663 10660 10656 10650 10645 10640 10636 10631 10627 10621 10615 10611 10606 10602 10598 10595 10592 10588 10584 10581 10578 10574
10697 10694 10691 10687 10684 10681 10678 10674 10669 10664 10658 10653 10648 10644 10638 10633 10627 10621 10615 10610 10605 10598 10594 10589 10583 10577 10573 10569 10564 10561 10557 10555 10551
10687 10685 10683 10680 10676 10672 10668 10664 10660 10655 10649 10644 10637 10630 10625 10621 10613 10605 10597 10592 10584 10577 10572 10567 10561 10556 10549 10543 10539 10534 10531 10529 10524
10679 10677 10675 10671 10666 10662 10657 10653 10648 10643 10639 10633 10626 10621 10613 10605 10590 10580 10572 10567 10560 10553 10548 10540 10534 10528 10522 10517 10510 10505 10502 10498 10493
10670 10668 10664 10660 10656 10652 10646 10640 10635 10629 10624 10618 10613 10606 10601 10596 10592 10566 10548 10541 10534 10526 10517 10508 10500 10493 10487 10482 10477 10471 10467 10462 10458
10660 10657 10653 10649 10644 10639 10633 10627 10621 10614 10608 10602 10593 10584 10577 10571 10570 10570 10546 10525 10511 10503 10493 10483 10473 10462 10454 10448 10443 10437 10432 10428 10423